"Pseudo-MPEC" for P10MXaO

Created 2019 Apr 22 3:07:13 UT using Find_Orb

Click here for an explanation of pseudo-MPECs

 
 Astrometry: 
     P10MXaO  C2019 04 07ldGsFS;=RV3Ghg_'7Astrometryi9TY\)m9\`W)3$6redacted;(F51
     P10MXaO  C2019 04 07uB8.D_h3`VLAG;uaITwSJjF,P#j=[clickFVI^eGxS48c:Ye/TYbF51
     P10MXaO  C2019 04 07#f3m2sxicoKD;'mTlnR)j=C#(-1bfseR`3Ze-wZXAP`h*,]\,@$=F51
     P10MXaO  C2019 04 09),J:I6g4BN!`bfn_GL'wfo[s,=YLC]jhereLD:@m+-[forM[]4w#F51
     P10MXaO  C2019 04 09(]$.!Og6HtS[PsDVq_vD*yqe6_=:gPrt%_0'3bhn52K,KGJoQ$AqF51
     P10MXaO  C2019 04 09:4.HhMR:!WS18A)T/xju#vGJ!pV%k'?LoNt7UQV]*AOKK)4#s0p1F51
     P10MXaO KC2019 04 10*K[`PMAoyjwM'R-2.j=*sBUexplanation1XvA^F,hqg)G:$pmon291
     P10MXaO KC2019 04 10tv'ccKZmDHGgZw.rwn`n\CoPHex=3rm4TVw%6D$ml%ZCxy78GM\$291
     P10MXaO  C2019 04 15.27958 14 02 56.26 +21 04 11.3    ~4F7X 21.3 GVNEOCPV06
     P10MXaO  C2019 04 15.28710 14 02 56.42 +21 04 17.9    ~4F7X 22.4 GVNEOCPV06
     P10MXaO  C2019 04 15.29461 14 02 56.53 +21 04 23.2    ~4F7X 22.1 GVNEOCPV06
     P10MXaO  C2019 04 15.30213 14 02 56.66 +21 04 28.0    ~4F7X 23.1 GVNEOCPV06
     P10MXaO  C2019 04 16.23393 14 03 14.31 +21 14 10.3    ~4G6X       VNEOCPV06
     P10MXaO  C2019 04 16.24145 14 03 14.41 +21 14 15.1    ~4G6X 21.7 GVNEOCPV06
     P10MXaO  C2019 04 16.24897 14 03 14.53 +21 14 18.7    ~4G6X       VNEOCPV06
     P10MXaO  C2019 04 16.25650 14 03 14.61 +21 14 23.9    ~4G6X       VNEOCPV06

Station data:
(291) LPL/Spacewatch II  (N31.961669 W111.599905)  US/Arizona.  Observers J.
   V. Scotti, R. S. McMillan. 1.8-m f/2.7 reflector + CCD.
(F51) Pan-STARRS 1, Haleakala  (N20.707235 W156.255910)  US/Hawaii.
   Observers N. Primak, A. Schultz, S. Watters, J. Thiel, T. Goggia. Measurer
   PS1 Science Consortium. 1.8-m Ritchey-Chrétien + CCD.
(V06) Catalina Sky Survey-Kuiper  (N32.416847 W110.732550)  US/Arizona.
   Observers T. A. Pruyne, B. M. Africano, E. J. Christensen, G. A. Farneth,
   D. C. Fuls, A. R. Gibbs, A. D. Grauer, H. Groeller, J. A. Johnson, R. A.
   Kowalski, S. M. Larson, G. J. Leonard, R. L. Seaman, F. C. Shelly. 1.55-m
   reflector + CCD.

Orbital elements:  P10MXaO
   Perihelion 2019 Mar 7.623175 +/- 1.29 TT = 14:57:22 (JD 2458550.123175)
Epoch 2019 Apr 16.0 TT = JDT 2458589.5   Earth MOID: 0.4227   Ju: 0.4228
M   7.43477622 +/- 0.19             (J2000 ecliptic)          AutoNEOCP
n   0.18881096 +/- 0.0106           Peri.   18.87609 +/- 1.3
a   3.00920132 +/- 0.113            Node   157.96061 +/- 0.45
e   0.5319701 +/- 0.0165            Incl.   14.58435 +/- 0.29
P   5.22                   H 22.1   G  0.15   U  9.7  
q 1.40839605 +/- 0.0036    Q 4.61000659 +/- 0.24
From 16 observations 2019 Apr. 7-16; mean residual 0".43
Residuals in arcseconds: 
190407 F51  .04-  .05+    190410 291  .02-  .41-    190416 V06  .10+  .27+    
190407 F51  .02-  .09-    190410 291  .10+  .30+    190416 V06  .17+  .41+    
190407 F51  .21+  .16-    190415 V06  1.2-  1.4-    190416 V06  .54+  .64-    
190409 F51  .23-  .06+    190415 V06  .33-  .27+    190416 V06  .36+  .08-    
190409 F51  .11+  .05+    190415 V06  .12-  .62+    
190409 F51  .02-  .27+    190415 V06  .37+  .49+    

Ephemerides (geocentric):
Date (UTC) HH   RA              Dec         delta   r     elong  mag " sig PA
---- -- -- --  -------------   -----------  ------ ------ -----  --- ---- ---
2019 04 22 03  14 04 47.737   +21 58 58.51  .54347 1.4869 146.0 22.7 5.06 172
2019 04 22 04  14 04 48.330   +21 59 11.44  .54366 1.4870 146.0 22.7 5.13 172
2019 04 22 05  14 04 48.922   +21 59 24.29  .54386 1.4872 146.0 22.7 5.21 172
2019 04 22 06  14 04 49.513   +21 59 37.06  .54406 1.4873 145.9 22.7 5.28 172
2019 04 22 07  14 04 50.104   +21 59 49.74  .54426 1.4875 145.9 22.7 5.35 172
2019 04 22 08  14 04 50.694   +22 00 02.34  .54445 1.4876 145.9 22.7 5.43 172
2019 04 22 09  14 04 51.283   +22 00 14.85  .54465 1.4877 145.9 22.7 5.51 172
2019 04 22 10  14 04 51.871   +22 00 27.28  .54485 1.4879 145.9 22.7 5.58 172
2019 04 22 11  14 04 52.459   +22 00 39.63  .54505 1.4880 145.9 22.7 5.66 172
2019 04 22 12  14 04 53.046   +22 00 51.90  .54525 1.4882 145.8 22.7 5.74 172
2019 04 22 13  14 04 53.632   +22 01 04.08  .54545 1.4883 145.8 22.7 5.81 172
2019 04 22 14  14 04 54.218   +22 01 16.18  .54565 1.4884 145.8 22.7 5.89 172
2019 04 22 15  14 04 54.803   +22 01 28.20  .54585 1.4886 145.8 22.7 5.97 172
2019 04 22 16  14 04 55.387   +22 01 40.13  .54605 1.4887 145.8 22.7 6.05 172
2019 04 22 17  14 04 55.970   +22 01 51.98  .54625 1.4888 145.8 22.7 6.13 172
2019 04 22 18  14 04 56.553   +22 02 03.75  .54645 1.4890 145.8 22.7 6.21 172
2019 04 22 19  14 04 57.135   +22 02 15.44  .54665 1.4891 145.7 22.7 6.29 172
2019 04 22 20  14 04 57.717   +22 02 27.04  .54685 1.4893 145.7 22.7 6.37 172
2019 04 22 21  14 04 58.298   +22 02 38.56  .54705 1.4894 145.7 22.7 6.46 172
2019 04 22 22  14 04 58.878   +22 02 49.99  .54725 1.4895 145.7 22.7 6.54 172
2019 04 22 23  14 04 59.458   +22 03 01.35  .54745 1.4897 145.7 22.7 6.62 172
2019 04 23 00  14 05 00.036   +22 03 12.62  .54765 1.4898 145.7 22.7 6.71 172
2019 04 23 01  14 05 00.615   +22 03 23.81  .54786 1.4900 145.6 22.7 6.79 172
2019 04 23 02  14 05 01.192   +22 03 34.92  .54806 1.4901 145.6 22.7 6.88 172
2019 04 23 03  14 05 01.769   +22 03 45.94  .54826 1.4902 145.6 22.7 6.96 172
2019 04 23 04  14 05 02.346   +22 03 56.88  .54846 1.4904 145.6 22.7 7.05 172
2019 04 23 05  14 05 02.921   +22 04 07.74  .54867 1.4905 145.6 22.7 7.14 172
2019 04 23 06  14 05 03.497   +22 04 18.52  .54887 1.4907 145.6 22.7 7.23 172
2019 04 23 07  14 05 04.071   +22 04 29.21  .54907 1.4908 145.5 22.7 7.31 172
2019 04 23 08  14 05 04.645   +22 04 39.82  .54927 1.4909 145.5 22.7 7.40 172
2019 04 23 09  14 05 05.219   +22 04 50.35  .54948 1.4911 145.5 22.7 7.49 172
2019 04 23 10  14 05 05.791   +22 05 00.80  .54968 1.4912 145.5 22.7 7.58 172
2019 04 23 11  14 05 06.364   +22 05 11.17  .54989 1.4914 145.5 22.7 7.67 172
2019 04 23 12  14 05 06.935   +22 05 21.45  .55009 1.4915 145.5 22.7 7.77 172
2019 04 23 13  14 05 07.506   +22 05 31.65  .55029 1.4917 145.4 22.7 7.86 172
2019 04 23 14  14 05 08.077   +22 05 41.77  .55050 1.4918 145.4 22.7 7.95 172
2019 04 23 15  14 05 08.647   +22 05 51.81  .55070 1.4919 145.4 22.7 8.04 172
2019 04 23 16  14 05 09.216   +22 06 01.76  .55091 1.4921 145.4 22.7 8.14 172
2019 04 23 17  14 05 09.785   +22 06 11.64  .55111 1.4922 145.4 22.7 8.23 172
2019 04 23 18  14 05 10.353   +22 06 21.43  .55132 1.4924 145.4 22.7 8.33 173
2019 04 23 19  14 05 10.921   +22 06 31.14  .55152 1.4925 145.4 22.7 8.42 173
2019 04 23 20  14 05 11.488   +22 06 40.76  .55173 1.4926 145.3 22.7 8.52 173
2019 04 23 21  14 05 12.055   +22 06 50.31  .55194 1.4928 145.3 22.7 8.62 173
2019 04 23 22  14 05 12.621   +22 06 59.77  .55214 1.4929 145.3 22.7 8.71 173
2019 04 23 23  14 05 13.187   +22 07 09.16  .55235 1.4931 145.3 22.7 8.81 173
2019 04 24 00  14 05 13.752   +22 07 18.46  .55255 1.4932 145.3 22.7 8.91 173
2019 04 24 01  14 05 14.317   +22 07 27.68  .55276 1.4934 145.3 22.7 9.01 173
2019 04 24 02  14 05 14.881   +22 07 36.82  .55297 1.4935 145.2 22.7 9.11 173